Regional Weather Roundup
Issued by NWS

Home | Current Version | Previous Version | Graphics & Text | Print | Product List | Glossary On
Versions: 1 2 3 4 5 6 7 8 9 10 11 12 13 14 15 16 17 18 19 20 21 22 23 24 25 26 27 28 29 30 31 32 33 34 35 36 37 38 39 40 41 42 43 44 45 46 47 48 49 50
798
ASUS43 KBIS 022302
RWRND

NORTH DAKOTA REGIONAL WEATHER ROUNDUP
NATIONAL WEATHER SERVICE BISMARCK ND
600 PM CDT MON MAY 02 2016

NOTE: "FAIR" INDICATES FEW OR NO CLOUDS BELOW 12,000 FEET WITH NO
SIGNIFICANT WEATHER AND/OR OBSTRUCTIONS TO VISIBILITY.


NDZ001>003-009>011-017-030000-
NORTHWEST NORTH DAKOTA

CITY           SKY/WX    TMP DP  RH WIND       PRES   REMARKS
WILLISTON      SUNNY     74  26  16 N12       29.98F
MINOT          SUNNY     73  34  23 NE6       29.97F
MINOT AFB      SUNNY     68  36  30 VRB1      29.96F
$$

NDZ018>021-031>035-040>046-030000-
SOUTHWEST NORTH DAKOTA

CITY           SKY/WX    TMP DP  RH WIND       PRES   REMARKS
BISMARCK       MOSUNNY   66  42  41 MISG      29.97S
DICKINSON      SUNNY     66  31  27 N15G25    29.97S
GARRISON         N/A     68  36  30 VRB7      29.97F
HETTINGER ARPT SUNNY     67  29  24 NE22G29   29.97R
$$

NDZ004>008-012>016-024-026-027-054-030000-
NORTHEAST NORTH DAKOTA

CITY           SKY/WX    TMP DP  RH WIND       PRES   REMARKS
GRAND FORKS    PTSUNNY   72  28  19 VRB3      29.94S
GRND FRKS AFB  SUNNY     70  26  18 VRB2      29.95S
DEVILS LAKE    SUNNY     65  33  30 SW5       29.99S
$$

NDZ022-023-025-028>030-036>039-047>053-030000-
SOUTHEAST NORTH DAKOTA

CITY           SKY/WX    TMP DP  RH WIND       PRES   REMARKS
FARGO          MOSUNNY   71  31  22 W7        29.95S
JAMESTOWN      SUNNY     60  39  45 S16       29.98F
$$





USA.gov is the U.S. government's official web portal to all federal, state and local government web resources and services.